QPF
0.00 0.00 0.00 0.00 0.00 0.00 0.00 0.00 0.00 0.00 0.00 0.00 0.00 0.00 0.00 0.00 0.00 0.00 0.00 0.01 0.00 0.00
0.00 0.00 0.00 0.00 0.00 0.00 0.00 0.00 0.00 0.00 0.00 0.00 0.00 0.00 0.01 0.00 0.00 0.00 0.00 0.00 0.00 0.01
0.00 0.00 0.00 0.00 0.00 0.00 0.00 0.00 0.00 0.00 0.00 0.00 0.00 0.00 0.01 0.02 0.00 0.00 0.00 0.00 0.00 0.01
0.00 0.00 0.00 0.00 0.00 0.00 0.00 0.00 0.00 0.00 0.00 0.00 0.00 0.00 0.01 0.01 0.00 0.00 0.00 0.00 0.00 0.00
0.00 0.00 0.00 0.00 0.00 0.00 0.00 0.00 0.00 0.00 0.00 0.00 0.00 0.00 0.01 0.01 0.01 0.00 0.00 0.00 0.00 0.00
0.00 0.00 0.00 0.00 0.00 0.00 0.00 0.00 0.00 0.00 0.00 0.00 0.00 0.00 0.00 0.00 0.01 0.01 0.00 0.00 0.00 0.00
0.00 0.00 0.00 0.00 0.00 0.00 0.00 0.00 0.00 0.00 0.00 0.00 0.00 0.00 0.00 0.00 0.00 0.00 0.00 0.00 0.00 0.00
0.00 0.00 0.00 0.00 0.00 0.00 0.00 0.00 0.00 0.00 0.00 0.00 0.01 0.01 0.01 0.01 0.01 0.00 0.00 0.00 0.00 0.00
0.00 0.00 0.00 0.00 0.00 0.00 0.00 0.01 0.00 0.00 0.01 0.01 0.00 0.00 0.00 0.00 0.01 0.01 0.01 0.01 0.01 0.00
0.00 0.00 0.00 0.00 0.00 0.00 0.00 0.00 0.00 0.00 0.02 0.01 0.00 0.00 0.00 0.01 0.01 0.01 0.01 0.01 0.01 0.01
0.00 0.00 0.00 0.00 0.00 0.00 0.00 0.00 0.00 0.00 0.00 0.00 0.00 0.01 0.00 0.01 0.01 0.01 0.01 0.00 0.00 0.00
0.00 0.00 0.00 0.00 0.00 0.00 0.00 0.00 0.00 0.00 0.00 0.00 0.00 0.00 0.00 0.00 0.00 0.00 0.00 0.00 0.00 0.00
0.00 0.00 0.00 0.00 0.00 0.00 0.00 0.00 0.00 0.00 0.00 0.00 0.00 0.00 0.00 0.00 0.00 0.00 0.00 0.00 0.00 0.00
0.00 0.00 0.00 0.00 0.00 0.00 0.00 0.00 0.00 0.00 0.00 0.00 0.00 0.00 0.00 0.00 0.00 0.00 0.00 0.00 0.00 0.00
MSLP
1005.61 1005.80 1006.08 1006.20 1006.32 1006.48 1006.80 1007.30 1007.92 1008.39 1008.72 1008.92 1009.22 1009.62 1010.23 1010.48 1010.69 1011.23 1011.45 1012.01 1011.95 1012.25
1005.08 1005.28 1005.50 1005.94 1006.11 1006.05 1006.27 1006.64 1007.19 1007.56 1007.94 1008.32 1008.56 1008.80 1009.48 1009.78 1010.15 1010.43 1010.92 1011.49 1011.67 1011.47
1004.12 1004.72 1005.15 1005.44 1005.60 1005.83 1005.99 1006.30 1006.59 1006.92 1007.29 1007.69 1007.99 1008.16 1008.39 1009.01 1009.33 1010.06 1010.56 1010.76 1011.11 1011.21
1003.64 1003.91 1004.50 1004.77 1004.87 1005.21 1005.58 1005.76 1005.98 1006.22 1006.52 1006.82 1007.20 1007.40 1007.48 1007.71 1008.34 1008.94 1009.41 1009.95 1010.41 1010.68
1003.41 1003.55 1004.00 1004.20 1004.30 1004.56 1004.84 1005.12 1005.30 1005.60 1005.89 1006.13 1006.48 1006.69 1006.85 1006.99 1007.25 1007.77 1008.26 1008.81 1009.38 1009.92
1003.01 1003.20 1003.37 1003.52 1003.77 1004.08 1004.38 1004.58 1004.81 1005.06 1005.39 1005.63 1005.83 1005.96 1005.99 1006.08 1006.26 1006.86 1007.39 1008.00 1008.56 1008.99
1002.82 1002.81 1002.78 1002.76 1003.06 1003.37 1003.71 1004.04 1004.26 1004.44 1004.59 1004.88 1005.18 1005.27 1005.28 1005.40 1005.53 1005.88 1006.42 1006.95 1007.44 1007.91
1003.74 1003.14 1002.55 1002.28 1002.38 1002.71 1002.96 1003.20 1003.48 1003.71 1003.89 1003.98 1004.11 1004.39 1004.68 1004.63 1004.64 1004.95 1005.36 1005.69 1006.12 1006.60
1003.85 1002.99 1002.13 1002.16 1002.32 1002.57 1002.61 1002.77 1003.16 1003.28 1003.35 1003.43 1003.35 1003.47 1003.60 1003.76 1003.96 1004.31 1004.67 1004.90 1005.53 1005.84
1004.59 1003.40 1002.34 1002.12 1002.49 1003.00 1003.29 1003.23 1003.45 1003.21 1002.80 1003.25 1002.98 1002.21 1002.79 1003.28 1003.80 1004.13 1004.59 1004.79 1005.00 1005.61
1005.62 1004.75 1004.16 1003.58 1003.93 1004.13 1004.50 1004.47 1004.59 1004.51 1003.92 1003.28 1003.79 1003.30 1002.97 1003.38 1003.68 1004.22 1004.41 1004.42 1004.70 1005.12
1007.10 1006.42 1005.77 1005.32 1005.45 1005.34 1005.66 1005.54 1005.85 1005.43 1004.62 1004.29 1004.82 1004.64 1004.22 1004.56 1004.96 1005.41 1005.76 1005.94 1006.10 1006.04
1008.93 1008.21 1007.56 1007.39 1007.19 1007.23 1006.86 1006.67 1006.88 1006.53 1006.23 1006.45 1006.47 1006.43 1006.18 1006.10 1006.27 1006.40 1006.58 1007.04 1007.18 1007.07
1010.28 1009.74 1009.37 1009.10 1008.62 1008.32 1008.19 1007.94 1007.68 1007.75 1007.92 1008.07 1008.44 1008.52 1008.08 1007.83 1007.72 1007.72 1007.73 1007.85 1007.92 1008.02
Thickness
5521 5535 5550 5562 5576 5584 5594 5601 5606 5612 5620 5629 5635 5640 5641 5646 5651 5650 5654 5652 5656 5657
5503 5520 5538 5549 5562 5575 5584 5592 5597 5606 5613 5619 5627 5633 5634 5639 5642 5644 5646 5646 5646 5654
5499 5512 5526 5539 5553 5566 5576 5583 5590 5597 5604 5610 5616 5624 5631 5633 5637 5636 5636 5640 5639 5646
5498 5510 5522 5536 5549 5559 5567 5577 5585 5592 5598 5603 5609 5616 5624 5631 5633 5633 5634 5635 5635 5637
5504 5515 5522 5534 5544 5553 5563 5572 5581 5587 5592 5599 5604 5609 5614 5621 5628 5630 5631 5632 5632 5633
5514 5520 5527 5537 5547 5555 5563 5570 5577 5583 5587 5592 5597 5602 5610 5616 5622 5624 5625 5625 5625 5626
5523 5529 5535 5540 5547 5554 5562 5568 5574 5579 5584 5588 5591 5597 5604 5610 5615 5618 5620 5620 5622 5623
5515 5523 5536 5545 5551 5556 5561 5568 5573 5578 5581 5585 5588 5591 5595 5602 5610 5612 5615 5616 5618 5620
5527 5532 5543 5550 5555 5558 5563 5569 5574 5578 5578 5578 5581 5587 5591 5597 5604 5607 5610 5612 5612 5614
5523 5535 5547 5556 5557 5557 5560 5567 5569 5575 5582 5575 5582 5590 5591 5596 5600 5601 5600 5605 5607 5606
5521 5531 5539 5547 5548 5552 5553 5557 5559 5560 5567 5574 5572 5582 5591 5593 5597 5598 5599 5603 5604 5606
5519 5524 5532 5540 5542 5546 5546 5549 5547 5553 5561 5567 5567 5570 5578 5580 5583 5582 5584 5586 5589 5593
5518 5521 5525 5527 5532 5533 5539 5541 5541 5545 5550 5552 5554 5558 5563 5567 5570 5573 5575 5572 5576 5578
5518 5522 5525 5527 5532 5535 5536 5540 5543 5544 5545 5546 5545 5547 5553 5558 5562 5564 5565 5565 5567 5567